Weather History for Corsicana, TX

Change the Weather History Date:

Sunday, January 26, 2014

  Actual Average (KACT) Record (KACT)
Temperature  
Mean Temperature 59 °F 48 °F  
Max Temperature 72 °F 59 °F 82 °F (1909)
Min Temperature 46 °F 37 °F 14 °F (1940)
Degree Days  
Heating Degree Days 6 17  
Month to date heating degree days 471  
Since 1 July heating degree days 1323  
Cooling Degree Days 0 0  
Month to date cooling degree days 0  
Year to date cooling degree days 0  
Growing Degree Days 9 (Base 50)    
Moisture  
Dew Point 36 °F    
Average Humidity 51    
Maximum Humidity 71    
Minimum Humidity 22    
Precipitation  
Precipitation 0.00 in 0.07 in 1.72 in (1992)
Month to date precipitation 1.73  
Year to date precipitation 1.73  
Snow  
Snow 0.00 in 0.00 in 0.00 in ()
Month to date snowfall 0.2  
Since 1 July snowfall 0.3  
Snow Depth -    
Sea Level Pressure  
Sea Level Pressure 29.82 in    
Wind  
Wind Speed 8 mph (SSE)    
Max Wind Speed 21 mph    
Max Gust Speed 30 mph    
Visibility 10 miles    
Events      
T = Trace of Precipitation, MM = Missing Value Source: NWS Daily Summary

Daily Weather History Graph

Daily Weather History Graph

Search for Another Location

Airport:

Trip Planner

Search our weather history database for the weather conditions in past years. The results will help you decide how hot, cold, wet, or windy it might be!

Date:

Astronomy

Jan. 26, 2014 Rise Set
Actual Time 7:22 AM CST 5:54 PM CST
Civil Twilight 6:56 AM CST 6:19 PM CST
Nautical Twilight 6:27 AM CST 6:49 PM CST
Astronomical Twilight 5:58 AM CST 7:18 PM CST
Moon 3:00 AM CST (1/26) 1:46 PM CST (1/26)
Length of Visible Light 11h 23m
Length of Day
10h 31m
Waning Crescent, 23% of the Moon is Illuminated
Jan 26
Waning Crescent
Jan 30
New
Feb 6
First Quarter
Feb 14
Full
Feb 22
Last Quarter

Hourly Weather History & Observations

Time (CST) Temp. Windchill Dew Point Humidity Pressure Visibility Wind Dir Wind Speed Gust Speed Precip Events Conditions
12:53 AM 46.9 °F - 36.0 °F 66% 29.98 in 10.0 mi SSE 6.9 mph - N/A   Clear
1:53 AM 48.0 °F - 36.0 °F 63% 29.96 in 10.0 mi Calm Calm - N/A   Clear
2:53 AM 46.9 °F - 36.0 °F 66% 29.96 in 10.0 mi South 10.4 mph - N/A   Clear
3:53 AM 46.0 °F 44.8 °F 37.0 °F 71% 29.96 in 10.0 mi SSW 3.5 mph - N/A   Clear
4:53 AM 48.0 °F - 36.0 °F 63% 29.91 in 10.0 mi SSE 10.4 mph - N/A   Mostly Cloudy
5:53 AM 48.9 °F - 36.0 °F 61% 29.89 in 10.0 mi SE 8.1 mph - N/A   Partly Cloudy
6:53 AM 46.9 °F - 37.0 °F 68% 29.91 in 10.0 mi Calm Calm - N/A   Mostly Cloudy
7:53 AM 48.0 °F - 37.0 °F 66% 29.90 in 10.0 mi SE 8.1 mph - N/A   Mostly Cloudy
8:53 AM 48.9 °F - 37.0 °F 64% 29.90 in 10.0 mi SSE 5.8 mph - N/A   Partly Cloudy
9:53 AM 53.1 °F - 37.0 °F 55% 29.88 in 10.0 mi South 11.5 mph - N/A   Scattered Clouds
10:53 AM 62.1 °F - 36.0 °F 38% 29.85 in 10.0 mi South 12.7 mph - N/A   Mostly Cloudy
11:53 AM 68.0 °F - 32.0 °F 26% 29.81 in 10.0 mi South 16.1 mph 24.2 mph N/A   Partly Cloudy
12:53 PM 71.1 °F - 30.0 °F 22% 29.76 in 10.0 mi South 18.4 mph - N/A   Clear
1:53 PM 71.1 °F - 33.1 °F 25% 29.72 in 10.0 mi SSW 20.7 mph 29.9 mph N/A   Clear
2:53 PM 71.1 °F - 34.0 °F 26% 29.70 in 10.0 mi South 18.4 mph 25.3 mph N/A   Clear
3:53 PM 72.0 °F - 36.0 °F 27% 29.69 in 10.0 mi South 12.7 mph - N/A   Clear
4:53 PM 70.0 °F - 36.0 °F 29% 29.68 in 10.0 mi South 11.5 mph - N/A   Clear
5:53 PM 63.0 °F - 37.9 °F 40% 29.70 in 10.0 mi SSE 9.2 mph - N/A   Clear
6:53 PM 57.9 °F - 37.9 °F 47% 29.71 in 10.0 mi SSE 8.1 mph - N/A   Clear
7:53 PM 57.9 °F - 37.9 °F 47% 29.72 in 10.0 mi SSE 10.4 mph - N/A   Clear
8:53 PM 55.9 °F - 37.9 °F 51% 29.73 in 10.0 mi SE 6.9 mph - N/A   Clear
9:53 PM 52.0 °F - 37.9 °F 59% 29.75 in 10.0 mi SE 3.5 mph - N/A   Clear
10:53 PM 50.0 °F - 39.0 °F 66% 29.76 in 10.0 mi SSE 8.1 mph - N/A   Clear
11:53 PM 48.9 °F - 39.0 °F 69% 29.75 in 10.0 mi SSE 4.6 mph - N/A   Clear